Weather History for Casper, WY

Change the Weather History Date:

Thursday, July 11, 2013

  Actual Average Record
Temperature  
Mean Temperature 76 °F 70 °F  
Max Temperature 98 °F 88 °F 103 °F (1954)
Min Temperature 54 °F 53 °F 39 °F (1983)
Degree Days  
Heating Degree Days 0 1  
Month to date heating degree days 0 11  
Since 1 June heating degree days 72 147  
Since 1 July heating degree days 0 11  
Cooling Degree Days 11 6  
Month to date cooling degree days 84 55  
Year to date cooling degree days 177 112  
Since 1 June cooling degree days 167 108  
Growing Degree Days 26 (Base 50)    
Moisture  
Dew Point 46 °F    
Average Humidity 48    
Maximum Humidity 86    
Minimum Humidity 10    
Precipitation  
Precipitation 0.00 in 0.05 in 0.88 in (1951)
Month to date precipitation 1.26 0.46  
Year to date precipitation 8.10 7.28  
Snow  
Snow 0.00 in 0.00 in - ()
Month to date snowfall 0.0 0.0  
Since 1 June snowfall 0.0 0.1  
Since 1 July snowfall 0.0 0.0  
Snow Depth 0.00 in    
Sea Level Pressure  
Sea Level Pressure 29.73 in    
Wind  
Wind Speed 6 mph (West)    
Max Wind Speed 28 mph    
Max Gust Speed 39 mph    
Visibility 10 miles    
Events      
T = Trace of Precipitation, MM = Missing Value Source: NWS Daily Summary

Daily Weather History Graph

Daily Weather History Graph

Search for Another Location

Airport:

Trip Planner

Search our weather history database for the weather conditions in past years. The results will help you decide how hot, cold, wet, or windy it might be!

Date:

Astronomy

Jul. 11, 2013 Rise Set
Actual Time 5:37 AM MDT 8:44 PM MDT
Civil Twilight 5:03 AM MDT 9:19 PM MDT
Nautical Twilight 4:19 AM MDT 10:03 PM MDT
Astronomical Twilight 3:26 AM MDT 10:55 PM MDT
Moon 9:04 AM MDT (7/11) 10:19 PM MDT (7/11)
Length of Visible Light 16h 15m
Length of Day
15h 07m
Waxing Crescent, 11% of the Moon is Illuminated
Jul 11
Waxing Crescent
Jul 15
First Quarter
Jul 22
Full
Jul 29
Last Quarter
Aug 6
New

Hourly Weather History & Observations

Time (MDT) Temp. Dew Point Humidity Pressure Visibility Wind Dir Wind Speed Gust Speed Precip Events Conditions
12:53 AM 61.0 °F 53.1 °F 75% 29.87 in 10.0 mi NW 6.9 mph - N/A   Clear
1:53 AM 61.0 °F 50.0 °F 67% 29.88 in 10.0 mi NNW 6.9 mph - N/A   Clear
2:53 AM 61.0 °F 53.1 °F 75% 29.86 in 10.0 mi North 8.1 mph - N/A   Clear
3:53 AM 57.0 °F 52.0 °F 83% 29.85 in 10.0 mi North 4.6 mph - N/A   Clear
4:53 AM 55.0 °F 52.0 °F 89% 29.84 in 10.0 mi Calm Calm - N/A   Clear
5:53 AM 55.9 °F 52.0 °F 87% 29.84 in 10.0 mi NNW 6.9 mph - N/A   Clear
6:53 AM 62.1 °F 54.0 °F 75% 29.82 in 10.0 mi WNW 4.6 mph - N/A   Clear
7:53 AM 69.1 °F 55.9 °F 63% 29.81 in 10.0 mi Calm Calm - N/A   Clear
8:53 AM 73.9 °F 54.0 °F 50% 29.81 in 10.0 mi Calm Calm - N/A   Clear
9:53 AM 78.1 °F 54.0 °F 43% 29.77 in 10.0 mi Calm Calm - N/A   Clear
10:53 AM 82.9 °F 50.0 °F 32% 29.74 in 10.0 mi Calm Calm - N/A   Clear
11:53 AM 90.0 °F 51.1 °F 26% 29.74 in 10.0 mi SSE 3.5 mph - N/A   Clear
12:53 PM 95.0 °F 39.0 °F 14% 29.70 in 10.0 mi SSW 15.0 mph 19.6 mph N/A   Clear
1:53 PM 97.0 °F 35.1 °F 11% 29.68 in 10.0 mi SW 19.6 mph 27.6 mph N/A   Clear
2:53 PM 96.1 °F 33.1 °F 11% 29.67 in 10.0 mi SW 12.7 mph 23.0 mph N/A   Clear
3:53 PM 97.0 °F 30.9 °F 10% 29.65 in 10.0 mi West 10.4 mph 17.3 mph N/A   Clear
4:53 PM 93.0 °F 34.0 °F 12% 29.65 in 10.0 mi SW 12.7 mph 18.4 mph N/A   Clear
5:53 PM 93.0 °F 42.1 °F 17% 29.62 in 10.0 mi SW 4.6 mph - N/A   Clear
6:53 PM 88.0 °F 51.1 °F 28% 29.61 in 10.0 mi Calm Calm - N/A   Clear
7:53 PM 87.1 °F 46.0 °F 24% 29.60 in 10.0 mi SSE 5.8 mph - N/A   Clear
8:53 PM 88.0 °F 34.0 °F 15% 29.59 in 10.0 mi SE 4.6 mph - N/A   Clear
9:53 PM 80.1 °F 37.0 °F 21% 29.61 in 10.0 mi North 6.9 mph - N/A   Clear
10:53 PM 75.0 °F 36.0 °F 24% 29.62 in 10.0 mi WNW 8.1 mph - N/A   Clear
11:53 PM 78.1 °F 44.1 °F 30% 29.65 in 10.0 mi WNW 11.5 mph - N/A   Clear